Tracking 19651 objects as of 23-Apr-2019
HD Live streaming from Space Station
objects crossing your sky now

PSLV DEB

Track PSLV DEB now!
10-day predictions


NORAD ID: 31403
Int'l Code: 1996-017D
Perigee: 585.6 km
Apogee: 604.4 km
Inclination: 98.3 °
Period: 96.4 minutes
Semi major axis: 6965 km
RCS: 0.0053 m2 (small)
Launch date: March 21, 1996
Source: India (IND)
Launch site: SRIHARIKOTA (SRI)

Note: This is SATELLITE DEBRIS
aabbcc
Your satellite tracking list
Your tracking list is empty




NASA's NSSDC Master Catalog

Two Line Element Set (TLE):
1 31403U 96017D   19112.36242108 +.00005707 +00000-0 +55060-3 0  9992
2 31403 098.3267 152.1393 0013487 026.5980 038.7201 14.93247806209304
Source of the keplerian elements: AFSPC